THURAYA-2

Last updated on Sat Apr 13 2024 01:02:36 GMT+0100 (British Summer Time)

1 27825U 03026A 24103.45789319 .00000118 00000+0 00000+0 0 9999 2 27825 7.6307 34.3112 0002848 320.2855 55.3782 1.00271929 76374
UTC large
Height (km)
Speed (km/s)
/
Latitude / Longitude
Inclination (degrees)
Orbital Period (minutes)
Azimuth
Elevation
Range (km)
Doppler Factor

Next 0 passes for location: London (51.5072 / 0.1276)

Sorry there are no passes over London.